Wind_Speed
3 4 3 3 5 6 8 5 5 4 6 8 5 4 4 3 3 3 2 3 5 7 3 2 3 3 2 3 5 8 8 10 13 14 16 18 19 20 20 20 20 20 19 18 16 14 15 14 11 12 12 11 12 11 10 11 10 9 10 11 10 7 7 8 8 9 11 12 13 15 18 21 22 23 25 26 28 23 16 12 11 11 12 14 12 6
4 5 2 5 6 6 5 5 7 5 5 6 6 5 3 2 1 3 2 3 2 4 2 2 5 5 3 3 5 8 7 10 15 16 18 21 21 21 22 23 23 22 21 21 20 18 16 13 11 13 13 12 14 14 14 14 13 12 13 13 12 9 8 9 10 10 12 13 14 15 17 20 21 22 24 25 27 26 18 11 10 12 13 13 12 8
6 3 6 6 4 1 4 5 8 7 6 5 4 5 3 3 1 3 4 5 5 3 1 2 5 3 5 3 5 9 10 12 16 18 20 22 22 23 25 25 24 24 24 23 22 21 18 14 12 13 13 14 15 16 16 17 17 15 14 14 13 12 10 11 11 11 12 13 13 15 16 18 20 21 22 23 24 25 21 13 10 11 12 12 12 9
3 1 5 4 1 4 6 5 6 7 5 4 4 5 2 3 2 0 3 4 5 3 3 4 4 3 5 2 3 9 12 15 15 17 21 22 24 26 26 26 24 24 25 23 22 21 20 18 15 13 13 14 15 15 15 18 19 16 14 14 13 12 12 12 12 12 12 12 13 15 16 17 18 20 21 21 22 24 23 16 11 10 10 10 11 11
1 4 3 6 5 5 7 7 7 6 4 2 3 5 3 4 3 3 2 1 5 5 3 5 4 4 4 3 4 5 7 12 14 15 18 21 24 25 26 27 25 23 24 23 21 20 20 20 17 15 15 15 16 16 14 16 17 15 14 14 12 11 12 12 13 13 13 12 13 15 15 15 17 19 20 21 22 23 24 20 13 11 11 10 10 10
1 4 3 4 6 7 8 6 3 5 3 4 2 5 5 6 6 6 5 4 5 4 1 5 4 4 4 3 6 4 4 7 9 11 16 19 20 22 25 27 25 24 23 22 22 19 18 17 14 14 15 16 17 17 16 15 15 14 14 13 11 9 10 14 15 15 15 12 12 14 15 15 16 18 19 21 22 22 24 23 17 12 12 11 10 9
2 5 5 5 7 7 7 4 2 5 5 3 2 4 4 7 9 9 7 4 3 2 2 4 4 3 5 4 5 4 5 7 8 9 15 17 16 18 22 24 24 24 23 23 23 21 19 16 13 12 13 15 16 16 17 17 16 15 12 11 10 9 9 11 13 15 15 13 11 13 14 14 15 17 18 20 21 21 22 24 21 15 11 11 11 9
2 6 8 6 7 7 6 2 2 5 6 1 3 4 8 9 10 8 6 4 2 3 2 5 4 2 3 5 5 4 4 7 8 9 13 17 17 17 18 19 20 21 21 22 21 21 20 19 17 15 13 13 13 15 17 17 16 15 13 11 11 12 11 9 10 13 15 14 11 12 14 14 14 16 17 18 20 20 20 22 23 18 12 11 11 9
0 4 5 5 7 5 1 3 4 5 4 1 4 5 7 7 8 6 6 4 1 3 1 5 3 3 3 5 4 4 2 6 8 8 10 13 15 15 15 14 14 16 17 18 18 17 18 18 19 18 17 16 15 15 16 17 16 16 16 15 15 16 14 12 11 11 14 15 12 11 12 13 14 15 17 18 19 19 19 20 23 21 14 11 10 9
1 1 0 5 5 1 3 4 2 4 1 2 5 6 7 6 6 5 5 4 3 4 2 5 2 3 3 5 4 3 1 4 7 6 8 10 9 10 11 10 10 11 12 13 14 14 14 14 14 16 17 18 17 17 17 18 19 19 19 19 19 17 15 14 14 12 14 15 12 11 11 12 13 14 16 17 18 18 18 19 21 22 16 11 10 9
3 1 1 3 2 2 3 2 0 1 3 6 6 7 7 6 5 4 4 4 4 3 4 6 1 3 2 5 3 1 2 4 4 5 7 9 8 8 9 9 8 9 10 10 11 10 10 10 10 11 12 12 14 16 17 18 20 21 21 20 20 18 15 15 16 15 14 14 13 12 11 12 12 14 16 17 17 18 18 18 20 22 19 12 10 9
6 3 1 2 3 2 1 1 0 3 4 6 4 5 5 4 5 4 5 4 4 2 5 4 0 4 1 4 4 4 5 5 4 5 6 7 8 7 7 8 8 8 8 8 7 7 7 7 8 8 8 7 8 11 13 15 17 20 21 20 20 19 17 16 16 15 15 14 13 12 11 12 12 13 15 16 16 17 18 18 19 20 20 15 10 8
5 2 5 5 3 4 4 1 3 5 5 5 4 5 4 2 3 2 3 2 1 2 2 1 1 2 3 6 5 6 7 6 7 8 9 8 9 9 8 8 7 7 7 7 6 6 6 6 7 7 7 7 7 8 10 12 15 18 19 20 21 20 18 17 15 14 14 13 13 12 11 11 12 14 15 15 16 16 17 17 18 18 20 18 11 8
4 5 8 5 3 5 5 3 1 3 4 4 3 4 3 2 3 1 3 2 2 3 1 2 1 0 3 4 4 6 8 9 9 10 11 10 9 10 10 8 6 6 7 8 8 7 6 6 7 7 8 8 8 9 10 11 12 14 16 18 19 17 16 16 14 13 13 12 12 12 12 11 13 14 15 15 16 16 16 16 17 17 18 19 14 8
1 3 5 3 3 5 3 3 4 3 3 2 4 5 3 4 4 2 3 2 2 2 2 4 2 2 2 3 5 7 10 11 8 7 8 9 9 11 11 9 8 7 7 9 10 9 8 7 7 7 8 8 8 8 8 8 8 9 11 12 13 12 11 12 12 13 13 12 12 13 12 12 13 15 16 15 15 15 16 16 16 17 17 18 17 10
3 3 5 3 3 3 4 1 3 5 3 1 2 4 1 2 4 3 2 4 3 0 1 2 2 3 3 5 6 7 9 8 5 5 6 8 9 11 12 10 9 8 8 8 10 11 9 6 6 7 7 7 6 5 5 5 6 6 7 7 8 8 8 10 11 12 12 12 13 14 14 14 14 16 16 16 15 15 15 16 16 17 17 17 18 15
3 2 5 5 3 3 3 1 1 3 0 1 3 1 2 3 6 5 1 1 4 2 2 1 2 4 3 3 5 6 6 6 6 5 6 7 9 12 12 10 9 8 8 8 10 11 8 4 4 5 6 7 6 5 5 5 6 6 6 6 6 6 7 8 9 10 11 12 13 14 14 14 15 16 17 16 16 15 15 15 15 16 17 17 18 18
4 1 6 3 2 2 3 2 4 4 2 1 1 2 2 2 4 4 2 3 4 0 3 1 2 4 2 1 5 6 5 6 6 5 6 7 9 12 11 9 9 9 8 10 11 11 8 6 5 6 6 7 7 6 6 6 7 7 6 6 6 6 6 6 7 8 9 10 11 12 12 13 14 16 17 17 16 16 15 15 15 16 17 17 18 19
4 1 6 2 2 5 5 4 2 6 5 3 4 3 2 2 0 1 2 1 1 1 3 4 3 3 3 3 4 4 5 7 7 5 6 8 11 12 10 8 8 9 9 10 10 9 7 6 7 7 7 7 6 6 7 7 8 8 7 7 7 6 6 6 7 7 7 7 8 9 10 11 12 13 16 17 16 16 15 14 15 16 16 17 17 19
3 3 3 4 2 4 6 4 1 5 6 4 3 3 2 3 3 0 1 2 2 2 2 3 4 3 5 5 4 5 7 7 6 5 5 10 13 12 10 9 9 9 9 8 7 6 5 5 7 7 7 6 5 5 5 6 7 7 7 7 7 7 7 7 7 7 6 6 7 8 9 10 11 12 15 16 16 16 15 14 15 15 16 17 17 19
2 4 1 5 4 3 2 1 2 2 2 3 4 3 3 2 1 1 1 2 2 3 2 1 2 5 6 4 5 7 7 6 7 6 7 11 12 10 10 9 9 9 7 6 5 4 4 5 6 6 6 5 4 4 5 5 5 5 6 6 6 6 6 6 6 7 7 7 8 9 9 10 11 12 14 15 15 16 15 13 15 16 16 17 17 18
1 3 3 2 4 2 3 5 4 5 4 3 2 2 2 0 1 2 1 2 1 2 3 3 2 6 5 3 5 6 7 7 8 8 9 11 10 10 10 9 8 8 6 5 5 5 5 5 6 7 7 6 6 6 6 6 5 5 5 5 5 6 6 6 6 6 7 8 10 10 10 11 12 12 13 14 15 16 14 13 15 16 16 16 16 18
3 3 4 1 1 2 6 5 3 4 4 5 2 2 4 2 3 5 2 3 1 1 1 3 1 6 5 4 5 7 9 10 9 9 10 11 10 10 11 9 8 8 7 5 6 6 7 7 7 8 9 9 9 9 8 8 8 7 6 5 6 6 6 6 7 7 9 10 11 12 12 13 13 13 13 14 15 15 14 13 15 16 16 16 16 18
2 4 4 1 4 4 7 4 1 3 3 3 1 2 3 1 2 5 4 3 3 2 1 2 1 6 5 4 5 7 9 9 8 9 11 12 11 11 10 8 8 9 8 7 7 7 7 7 8 9 10 10 9 9 9 9 10 9 7 7 8 8 8 9 10 10 11 11 12 12 13 14 14 14 14 14 14 14 13 13 15 16 16 15 16 17
1 1 4 3 4 5 6 6 4 4 2 2 1 1 2 3 5 3 2 3 2 3 4 3 3 6 5 5 4 3 2 5 8 11 12 13 12 12 10 9 8 9 9 8 8 7 7 7 8 8 9 9 8 8 8 8 8 7 8 9 9 10 10 10 11 12 13 13 14 14 13 13 13 13 13 13 13 13 12 13 15 16 16 15 16 17
2 1 4 5 3 1 2 2 3 3 1 0 1 1 2 4 4 2 1 4 1 2 4 4 4 6 6 5 4 2 2 3 8 9 11 13 14 13 11 10 10 10 10 9 8 8 7 7 7 8 8 8 7 7 6 6 6 6 7 8 9 10 11 11 12 13 13 13 13 13 11 10 10 10 10 11 11 11 12 13 15 16 15 15 16 17
3 2 3 6 6 5 5 6 4 3 2 1 2 2 1 3 4 4 3 1 3 3 1 5 6 4 8 6 4 5 4 4 8 10 12 14 15 14 13 11 11 11 11 10 9 9 8 7 7 7 8 8 6 6 6 7 7 7 7 7 8 9 10 11 12 12 11 11 9 8 7 6 7 7 8 9 9 10 12 13 15 16 15 15 16 17
4 2 1 5 5 6 6 6 2 2 2 4 4 3 3 4 5 5 3 3 4 3 4 7 5 3 8 7 6 8 6 5 9 13 14 14 14 14 14 13 13 12 11 11 10 9 8 7 7 8 8 7 7 7 7 8 9 9 8 7 7 8 9 10 10 8 7 7 5 4 4 5 6 7 7 8 9 10 12 14 15 15 14 15 16 17
5 1 2 3 3 4 2 3 3 0 1 3 5 5 5 6 6 6 6 6 7 5 6 6 6 6 8 7 6 9 9 9 11 13 13 12 13 14 14 15 15 14 12 12 11 10 8 7 8 8 7 7 7 7 8 9 10 10 8 8 8 8 9 9 8 6 5 5 4 4 4 5 5 6 7 8 9 10 12 13 14 15 15 15 16 17
4 1 2 2 2 5 3 3 3 2 1 2 4 6 5 7 8 6 4 4 6 6 7 4 4 8 10 8 9 10 9 10 11 11 11 12 13 13 13 15 16 15 13 13 11 9 8 8 8 8 8 7 6 7 8 9 10 10 9 9 9 10 10 9 7 5 4 5 4 4 3 4 4 6 7 8 9 10 11 12 14 14 15 15 16 16
2 0 0 3 2 5 5 5 4 0 2 5 6 3 2 3 4 3 2 2 3 6 5 2 3 9 8 9 13 14 10 9 10 11 12 13 13 13 14 15 16 15 14 13 11 9 8 8 8 7 8 8 8 8 9 9 9 9 9 9 10 11 9 8 7 5 4 4 4 3 4 5 5 6 7 8 9 10 11 12 13 14 14 14 15 16
3 1 1 4 2 5 3 6 6 4 3 2 8 7 4 4 3 3 3 5 6 4 2 1 3 7 6 4 9 13 12 10 12 13 14 15 14 14 15 15 15 15 14 13 12 9 9 8 7 6 7 8 9 9 9 8 8 8 9 9 10 10 8 7 6 5 4 4 4 4 5 6 7 7 8 8 9 10 11 12 12 13 13 13 14 15
3 4 1 2 1 4 5 4 4 4 6 4 8 7 8 6 4 4 4 6 7 7 6 4 6 7 4 2 3 7 8 10 13 15 16 16 16 15 16 15 15 15 15 14 13 11 10 8 6 5 6 7 7 7 7 8 8 8 8 9 9 9 8 7 6 6 5 5 5 5 6 7 8 8 8 9 10 10 11 11 12 12 12 13 13 14
3 5 2 2 2 4 7 5 3 3 3 5 6 5 8 7 7 7 7 8 8 6 4 5 6 5 4 3 6 8 10 12 14 15 15 16 17 17 17 16 16 16 15 15 14 12 11 9 7 6 6 6 5 5 6 7 7 7 8 9 9 10 9 7 7 6 7 7 7 7 7 8 8 8 8 9 10 11 11 11 12 12 12 13 13 14
4 4 2 2 2 2 3 5 3 4 6 8 6 3 5 6 7 8 8 8 9 9 8 9 8 8 9 11 13 14 15 14 14 15 15 16 18 19 18 18 17 16 16 15 14 13 11 10 9 7 7 6 6 6 7 7 6 7 8 9 9 9 9 8 7 7 7 7 8 8 8 8 9 8 8 9 10 11 12 12 12 12 12 13 13 14
6 4 2 2 2 1 1 4 1 6 8 8 6 2 2 2 4 3 7 9 8 11 10 10 12 12 12 15 16 15 14 13 14 17 18 17 18 19 20 19 16 15 15 13 12 11 10 9 9 8 8 7 7 8 9 8 7 8 9 9 10 10 9 9 9 8 8 9 9 9 9 9 9 9 9 9 10 11 11 12 12 12 12 13 14 15
7 5 3 2 1 1 1 1 3 5 7 8 5 1 4 3 4 5 3 8 8 11 12 10 11 12 13 16 16 12 10 8 11 17 20 18 19 19 19 18 15 13 13 11 11 10 9 9 9 9 9 9 9 11 11 9 9 10 10 10 11 11 11 11 11 11 11 11 11 11 11 11 11 10 10 11 11 11 12 12 12 12 13 13 14 15
4 3 5 4 2 3 4 1 3 4 4 6 7 5 4 5 5 6 3 5 8 11 17 14 9 10 13 14 11 7 4 3 5 13 15 12 15 18 17 16 14 12 11 11 11 10 9 9 10 10 11 11 11 13 13 12 11 12 12 12 12 12 13 13 13 13 13 13 12 12 13 13 13 12 12 12 12 12 12 13 12 12 12 13 14 15
6 3 4 4 1 3 4 1 2 2 5 7 8 7 4 5 6 4 4 6 8 8 15 16 12 12 14 13 10 8 4 1 6 13 12 6 8 12 13 13 12 10 10 10 11 11 10 9 10 11 12 13 13 12 12 13 13 14 15 15 14 15 16 15 15 15 15 14 13 12 13 15 15 15 14 14 13 13 13 14 13 12 12 13 14 15
6 4 3 3 2 3 4 2 3 4 5 6 7 6 3 4 5 6 4 8 7 3 10 16 15 14 13 12 12 10 7 7 9 11 7 3 4 7 8 9 10 9 9 10 11 12 10 11 12 13 14 15 13 11 11 13 14 15 17 16 16 17 18 17 16 16 16 16 15 14 15 15 16 16 16 15 14 14 15 15 14 13 12 13 14 15
2 2 2 3 3 4 4 3 3 4 7 7 7 6 6 6 4 3 2 8 6 4 8 12 12 12 10 12 15 12 12 16 15 12 6 5 8 8 7 7 8 9 10 11 12 13 13 13 14 14 15 15 14 13 13 13 15 17 18 18 18 19 19 19 19 18 17 16 15 15 16 16 16 17 16 16 16 16 16 16 16 15 14 14 14 15
1 1 1 2 3 3 4 2 2 5 8 6 5 7 8 6 1 5 7 6 5 6 7 8 10 11 10 12 16 17 16 17 17 17 13 12 13 11 8 8 9 11 12 13 14 15 16 16 15 15 15 14 13 14 14 14 16 18 18 19 18 18 18 19 19 18 16 15 15 15 16 16 16 16 16 16 16 16 16 16 17 16 16 15 15 15
4 3 2 2 4 3 2 1 0 5 6 9 12 7 5 6 5 6 6 7 8 8 8 9 10 10 10 12 14 16 16 16 17 18 16 15 16 14 12 11 12 13 14 15 16 17 18 18 17 16 15 13 13 14 14 16 18 18 18 19 17 16 16 16 15 14 15 15 16 16 16 16 15 15 15 15 15 16 16 17 18 18 17 17 16 16
3 4 3 3 3 4 3 3 5 5 7 16 14 5 8 13 12 8 5 6 8 9 10 11 10 9 10 11 12 13 15 15 16 16 16 16 17 16 15 15 15 16 16 16 17 18 19 20 19 18 16 14 14 15 16 17 18 18 19 18 15 14 14 13 13 14 15 15 16 15 15 15 14 14 14 14 15 15 16 16 18 19 19 19 19 18
6 7 5 3 4 4 4 8 8 4 6 16 17 13 13 16 18 16 13 12 11 10 10 10 9 9 9 11 12 13 14 15 15 16 16 17 18 18 18 18 18 18 18 18 19 19 20 21 21 20 18 16 15 16 18 19 19 19 19 16 14 13 13 13 14 15 16 16 15 13 13 14 14 14 14 14 14 15 15 16 18 19 20 20 20 20
7 7 5 2 3 4 7 12 12 12 16 19 21 21 19 19 20 20 19 20 18 14 13 12 11 11 11 12 13 15 15 16 17 18 18 18 19 19 20 20 20 20 20 20 20 20 20 21 22 22 20 17 16 17 19 19 20 20 18 15 13 13 13 14 15 17 16 15 14 13 12 13 13 14 14 14 14 15 15 16 17 18 20 21 21 21
2 5 5 1 1 2 5 8 8 12 19 19 17 19 22 23 25 25 24 23 21 18 17 16 14 13 13 14 15 16 17 17 18 19 19 20 21 21 20 20 20 20 21 21 20 20 21 22 23 23 22 20 18 17 19 20 20 20 17 14 13 13 13 14 15 16 15 14 13 12 13 13 13 13 13 13 14 14 15 15 16 17 19 20 21 21
1 2 3 2 3 3 6 11 13 16 19 18 17 20 21 20 22 24 25 24 22 19 19 19 16 15 16 16 17 18 19 20 20 21 21 22 23 22 21 20 20 19 20 20 21 21 22 23 23 24 24 22 19 18 19 21 20 19 17 14 13 13 13 14 14 14 13 13 13 14 14 14 14 13 12 12 13 13 14 15 15 16 17 17 19 20
2 1 3 3 1 3 7 12 16 16 16 15 15 15 15 15 14 14 15 16 15 15 16 18 17 17 17 17 17 17 18 19 20 22 23 23 24 23 22 20 19 19 19 20 21 22 23 24 24 24 24 23 21 20 21 21 21 19 17 14 12 13 13 14 13 13 13 14 15 15 14 13 13 13 12 13 13 13 14 14 15 16 16 16 17 18
4 2 2 2 1 4 5 8 9 5 6 10 10 9 9 10 9 8 7 8 9 10 11 11 13 14 14 15 15 16 17 18 19 20 21 22 22 21 20 19 19 19 19 20 21 23 24 25 25 26 26 26 24 24 23 22 21 19 16 14 13 13 13 13 13 14 15 15 14 13 11 11 12 12 13 14 15 15 15 14 14 15 15 15 15 15
10 8 6 5 4 7 9 13 12 7 8 11 12 12 12 11 10 10 10 10 11 12 12 13 14 16 17 18 17 17 18 19 20 20 21 21 20 20 20 19 19 19 19 19 20 22 23 24 26 28 28 28 27 27 25 23 22 20 16 14 13 13 13 14 14 15 15 13 11 10 10 11 12 12 14 14 14 14 14 13 13 13 13 14 14 13
Wind_Direction
76 75 77 192 212 223 228 192 141 142 138 137 126 118 146 170 270 274 293 300 136 118 22 86 109 10 313 239 226 210 218 238 243 250 251 248 248 249 252 256 258 258 256 253 252 257 261 262 266 267 269 269 263 264 270 278 288 294 300 303 305 312 322 332 341 344 349 1 7 7 9 9 10 12 11 14 17 15 13 9 4 360 353 349 349 339
75 74 285 240 232 240 225 162 124 98 94 101 111 121 134 167 295 333 345 336 77 117 344 73 86 11 311 255 229 208 214 234 236 243 249 251 252 252 255 260 262 265 265 260 255 257 259 262 278 277 267 263 265 266 271 279 285 288 294 293 292 298 305 318 326 331 338 349 360 4 7 6 5 8 9 11 15 15 13 6 358 1 0 358 0 358
51 52 285 275 231 154 75 120 125 99 82 81 92 115 137 197 178 2 352 355 24 99 283 53 83 339 298 260 218 214 221 237 238 241 248 253 257 258 260 263 264 265 267 267 262 260 262 265 276 276 264 260 262 267 271 275 280 286 290 282 280 291 299 307 315 319 328 339 349 357 3 4 1 3 7 9 11 14 13 6 358 359 2 4 5 2
52 294 304 349 62 101 67 55 87 78 69 84 94 112 178 243 144 90 314 357 30 84 144 110 88 328 311 329 242 224 229 245 251 253 255 256 259 263 265 266 265 264 267 272 271 266 264 267 274 273 264 258 257 265 272 274 281 289 287 277 275 290 300 303 304 307 317 328 336 343 353 359 358 356 2 7 9 12 12 7 359 355 359 4 5 3
172 266 332 35 37 80 81 47 61 73 25 359 119 134 188 223 173 165 183 70 34 32 90 95 49 330 330 346 292 249 240 252 256 262 264 260 259 262 265 265 265 265 267 275 284 278 267 269 281 279 267 261 258 265 273 278 287 295 291 283 279 285 294 295 294 296 303 317 326 333 342 351 353 351 354 2 7 11 12 9 1 352 352 359 4 4
270 311 358 64 48 60 81 60 78 115 49 342 236 200 197 177 149 132 129 96 49 12 318 82 60 304 316 318 277 290 314 274 264 270 271 268 265 261 263 265 265 265 267 278 291 290 275 272 282 282 271 267 264 266 273 280 288 295 294 285 274 276 285 286 285 284 289 303 319 326 335 344 348 348 351 359 4 8 11 10 6 355 349 354 359 0
318 2 33 82 75 59 62 64 174 136 94 30 254 208 169 127 122 129 128 99 93 211 268 76 109 260 318 307 274 307 321 296 290 284 276 277 277 271 269 270 268 266 269 279 289 289 282 274 278 288 286 278 273 269 271 276 280 285 287 281 270 272 284 286 277 272 278 295 312 320 330 341 345 347 350 356 1 4 8 12 10 3 353 348 348 350
300 4 18 42 61 61 51 28 209 140 102 72 235 150 130 124 129 136 112 95 163 187 5 34 98 124 318 280 277 307 307 302 302 288 282 282 282 283 283 280 275 272 273 279 284 286 284 277 273 283 296 294 284 275 270 271 274 275 275 279 277 272 275 286 280 264 266 285 306 313 324 337 341 343 348 352 357 1 6 11 11 8 1 351 346 344
270 12 11 43 50 55 32 286 223 154 92 255 214 142 126 127 128 127 103 98 105 94 21 323 49 95 278 277 304 336 327 307 296 278 281 284 285 290 295 295 287 280 278 279 281 283 284 280 273 277 287 292 290 281 271 266 269 271 269 271 277 276 275 284 292 274 258 272 301 313 319 333 336 338 344 347 352 356 1 8 11 9 4 356 351 346
201 285 174 99 71 38 260 284 218 160 112 158 142 92 75 74 78 80 91 105 56 58 223 275 39 96 273 288 322 354 334 278 278 273 278 287 293 294 298 304 298 290 287 285 287 287 286 283 276 275 278 282 285 283 275 267 266 270 269 267 272 281 286 284 287 285 264 269 299 314 316 327 330 332 338 343 347 351 356 3 7 8 6 359 352 348
295 250 177 91 64 246 226 244 133 130 158 144 105 67 64 43 40 48 48 84 64 7 259 263 16 104 286 286 270 232 220 233 256 291 292 295 302 297 297 302 300 297 293 291 294 293 290 285 274 268 269 275 278 277 274 269 265 268 270 269 270 280 290 284 280 283 276 277 296 308 312 320 323 326 332 337 342 345 351 359 4 5 6 2 350 347
343 27 335 322 312 311 86 170 17 44 96 117 80 68 85 15 14 34 358 37 79 302 270 266 128 109 164 263 251 250 253 232 222 258 276 295 310 313 309 304 299 300 295 292 297 297 295 287 275 271 274 284 284 278 277 274 270 270 273 275 276 280 285 285 282 281 279 281 291 301 307 312 314 318 325 331 336 340 346 355 2 2 4 4 354 348
347 340 306 316 339 21 53 56 328 15 47 71 60 69 87 10 7 28 329 359 100 257 278 279 131 122 215 246 255 268 270 252 236 246 258 285 314 319 316 311 302 299 299 301 300 296 297 294 291 291 295 303 303 301 299 291 283 280 281 281 280 284 286 285 285 279 275 280 288 296 303 305 307 310 317 324 329 335 340 350 0 359 1 4 358 351
335 315 333 359 2 11 64 108 323 342 13 45 87 100 104 93 62 310 276 320 285 263 301 304 288 242 276 270 245 253 277 282 278 275 272 284 309 314 312 311 305 305 311 313 310 305 303 306 307 305 306 309 311 315 316 307 298 288 284 281 279 283 285 281 281 276 274 279 283 292 298 299 301 302 308 317 322 330 335 344 358 358 357 1 359 344
75 318 339 5 320 347 44 139 157 132 60 51 149 130 131 148 138 199 223 199 236 258 303 308 306 161 212 265 251 266 293 299 297 291 279 281 299 306 304 304 308 319 327 325 322 320 316 313 314 312 309 308 308 316 319 312 305 294 287 284 281 283 282 278 279 278 277 280 283 289 293 293 296 298 302 311 316 322 330 339 353 356 352 357 360 347
95 240 268 289 295 7 21 259 145 96 55 298 148 89 62 176 138 132 168 175 174 160 312 302 259 205 214 262 280 304 312 304 294 283 278 281 288 293 296 303 311 321 331 330 325 326 323 312 311 315 316 313 302 298 309 311 310 309 307 301 296 294 291 286 285 283 281 281 281 285 291 291 292 294 296 304 310 314 325 335 346 353 349 349 356 352
85 239 280 329 355 36 30 315 59 78 194 304 62 73 242 156 116 115 146 38 74 98 275 301 268 295 325 283 297 349 344 313 302 288 284 286 284 284 291 302 308 312 323 322 317 323 321 301 299 317 324 326 311 281 283 299 307 316 320 318 315 308 302 299 297 293 288 284 284 286 291 291 290 291 292 298 305 307 318 331 341 348 345 343 349 351
130 209 298 0 81 339 10 78 46 45 93 72 75 204 211 101 92 104 110 14 40 134 275 338 283 295 1 253 308 349 334 298 294 295 300 291 276 275 282 295 299 301 309 307 310 319 317 303 304 314 321 324 314 289 282 289 296 306 315 321 323 315 309 304 297 295 289 284 286 288 291 291 289 290 291 293 297 301 312 328 336 342 342 340 343 347
109 111 298 301 183 302 346 78 31 4 36 86 155 162 102 104 4 17 98 112 60 224 287 322 315 274 201 218 287 302 264 263 279 304 307 278 263 265 274 286 289 291 299 304 312 316 310 309 311 312 318 319 309 291 289 294 297 303 308 312 317 315 310 300 290 291 288 282 284 286 288 287 285 287 287 287 291 297 306 322 330 335 338 336 338 344
96 115 276 277 246 319 2 50 25 328 357 39 82 34 17 123 150 292 114 154 152 154 265 312 331 275 228 215 208 231 244 246 258 284 275 260 262 266 267 272 277 283 295 308 318 316 308 322 322 315 315 316 312 299 298 306 308 312 314 313 317 316 308 300 294 294 291 285 282 280 281 282 283 285 284 285 291 294 300 316 323 327 332 331 333 342
58 95 200 286 329 15 11 11 177 212 305 6 40 26 9 41 90 184 74 71 119 143 177 239 309 269 249 209 188 226 249 237 229 236 251 260 264 261 255 257 268 279 291 303 311 309 307 322 323 314 304 298 300 302 304 311 315 320 325 322 318 314 308 304 299 294 289 284 279 278 281 283 285 287 287 289 293 291 294 311 318 319 325 326 328 339
131 104 137 307 1 34 249 255 215 191 181 150 122 133 147 46 85 131 338 323 71 122 164 158 260 270 259 207 198 226 245 243 231 225 243 257 252 245 244 247 263 275 280 288 296 296 291 296 307 306 301 294 292 292 290 292 298 302 308 309 304 301 305 308 304 297 291 284 280 281 285 287 287 287 289 294 294 289 292 307 314 314 318 321 324 336
153 105 94 57 305 237 264 268 193 171 158 139 120 136 143 105 99 126 207 261 90 69 135 123 230 272 262 215 220 245 253 256 247 230 234 242 238 240 243 243 255 264 266 277 294 297 289 285 297 306 307 306 304 301 294 288 286 281 278 283 285 284 287 290 291 289 285 282 283 285 285 287 288 287 289 295 294 289 292 305 309 309 312 316 319 330
114 84 82 350 302 299 305 312 98 94 100 113 36 67 121 75 95 141 177 177 133 160 157 93 285 271 273 264 260 263 255 249 239 225 227 233 239 244 240 241 252 256 259 271 284 295 292 288 298 310 313 311 307 304 299 292 287 277 267 271 276 279 281 280 279 278 277 278 278 280 283 286 287 286 289 295 295 292 294 303 305 304 306 311 314 323
147 81 98 69 358 342 337 346 352 345 18 147 240 37 100 90 89 116 140 89 97 190 152 127 246 255 271 303 307 296 265 235 224 220 229 240 245 244 242 249 256 254 258 268 277 283 282 285 298 309 313 311 306 302 298 298 297 284 274 278 284 291 295 292 286 282 279 279 279 278 282 287 288 286 290 296 297 296 297 300 300 300 302 306 310 318
135 136 114 114 128 217 270 281 271 270 295 255 212 134 106 102 107 147 112 71 70 213 145 156 223 261 290 317 321 313 341 266 236 231 238 245 247 245 246 252 255 253 258 267 273 273 269 277 291 300 304 305 302 300 303 311 314 304 293 295 301 304 303 300 295 289 285 285 284 281 281 288 291 290 293 297 298 297 296 296 296 298 300 302 305 314
99 104 115 136 161 184 197 220 225 164 141 232 238 223 177 121 108 108 93 101 193 173 190 220 212 269 297 296 278 270 278 262 253 252 249 248 250 250 250 251 253 254 259 265 264 259 259 267 278 287 294 296 299 307 319 329 329 321 315 312 310 308 307 306 304 299 293 290 288 282 281 287 291 289 291 295 297 295 292 292 294 296 298 298 302 311
90 71 133 143 186 212 201 222 262 84 174 206 194 212 196 146 117 112 142 207 161 116 288 257 193 206 272 263 241 250 253 245 254 257 254 254 257 259 257 253 252 255 260 263 260 255 259 265 269 275 279 284 298 310 321 333 331 323 318 314 312 314 318 319 318 315 303 291 284 276 274 276 277 280 287 292 293 292 290 292 295 296 295 295 300 309
106 116 197 159 258 269 229 260 271 186 215 192 181 207 197 165 164 177 204 199 153 160 247 237 179 204 249 252 234 233 234 240 253 258 262 263 262 264 262 252 249 255 262 264 261 259 264 265 267 277 277 275 288 297 306 321 325 318 312 311 314 320 322 322 324 321 300 282 274 269 270 272 276 283 291 295 295 295 295 296 298 297 294 294 300 308
113 159 201 141 312 318 353 324 261 187 209 248 221 214 193 184 193 200 225 209 180 215 238 208 209 248 251 238 232 235 239 252 264 265 260 257 256 261 263 254 250 256 262 264 263 262 265 263 266 282 285 277 279 286 297 312 318 313 309 310 315 320 321 319 321 316 293 279 277 280 291 298 301 301 300 301 302 302 302 301 299 298 296 296 300 305
96 223 221 98 12 310 333 359 353 80 201 246 271 269 162 175 213 234 264 205 211 260 253 194 281 279 261 233 237 248 254 261 267 259 248 247 249 256 259 255 253 258 262 263 260 260 261 259 266 287 293 287 284 288 299 309 312 309 309 309 312 316 314 309 311 311 294 286 291 304 320 322 318 315 309 307 307 307 307 305 301 302 301 300 302 305
94 86 32 77 44 286 309 5 350 4 72 272 287 277 205 177 197 219 217 194 192 199 171 106 288 267 262 252 246 250 250 248 253 253 248 246 246 250 254 255 256 261 265 263 258 259 261 261 272 296 303 298 291 294 303 308 310 313 313 312 311 312 307 296 297 301 295 296 304 310 319 320 318 318 315 314 313 310 308 305 305 309 309 307 307 305
120 123 136 116 96 266 288 353 347 15 35 323 274 235 196 197 222 242 258 235 203 160 138 187 228 237 267 316 247 243 241 236 243 247 247 247 247 248 252 256 261 264 265 264 262 260 259 261 272 290 298 296 291 295 305 309 315 321 319 315 313 313 310 298 288 288 288 293 298 302 309 312 311 314 316 315 314 311 309 309 312 317 317 314 309 303
118 110 143 154 116 261 281 331 348 351 340 262 241 185 178 195 205 217 240 234 208 180 185 236 248 254 268 238 207 216 220 226 241 249 251 252 252 251 254 258 264 266 264 262 261 259 257 256 260 272 279 279 274 279 294 302 312 316 312 313 314 312 314 311 304 299 297 299 300 300 302 303 304 308 312 315 315 315 315 316 318 319 318 315 309 306
123 101 116 133 103 246 294 12 0 272 247 243 253 231 203 192 178 202 251 252 218 212 235 260 263 249 241 233 222 220 223 230 247 256 258 258 255 255 259 262 264 265 262 258 257 260 260 255 253 258 263 265 262 265 278 288 296 302 302 303 306 306 305 307 308 309 308 310 311 307 303 300 298 301 307 313 317 319 320 318 317 318 316 314 313 311
143 133 129 119 116 229 16 64 177 246 262 278 297 287 186 137 129 184 286 280 230 207 215 240 249 243 243 243 234 230 238 252 266 266 261 259 257 255 257 259 262 263 261 259 258 261 265 259 255 258 260 259 258 261 270 280 284 291 296 295 296 299 297 294 295 300 305 309 311 310 306 302 298 298 302 307 314 322 324 318 313 313 314 315 316 314
139 141 148 153 185 169 126 190 243 302 312 307 312 230 167 167 161 161 253 277 242 202 194 213 245 246 239 242 241 239 254 281 293 277 267 261 259 256 255 258 263 260 255 255 257 259 262 257 254 258 259 257 258 261 268 276 278 283 289 291 291 291 289 287 289 292 297 299 301 302 301 299 297 296 296 299 305 315 321 318 312 308 309 314 317 315
108 153 171 181 213 115 99 315 317 350 311 273 265 250 222 221 198 150 129 291 271 223 201 201 232 237 226 234 237 225 245 328 301 276 277 274 258 254 255 256 254 250 245 246 249 252 255 256 254 257 259 259 261 264 264 268 272 277 282 286 287 286 284 284 286 288 290 293 295 295 294 291 291 291 291 291 296 305 311 314 313 309 308 312 316 316
50 44 120 127 148 117 113 158 219 213 248 246 248 267 274 228 204 109 49 302 287 247 208 201 221 236 227 222 205 172 140 102 252 266 285 296 255 252 258 255 247 245 246 243 245 252 259 261 259 259 258 258 264 269 266 265 268 272 277 284 286 284 282 282 285 288 288 287 287 286 285 284 284 285 287 289 292 297 302 306 310 311 310 312 315 315
45 28 69 126 184 158 135 175 222 231 249 239 238 263 271 189 162 66 12 273 268 248 201 201 221 242 234 209 183 160 167 208 244 274 286 279 266 266 262 255 249 252 258 253 251 256 261 259 258 260 259 260 268 275 269 265 267 269 274 281 284 283 285 286 287 288 286 282 277 274 276 279 278 279 283 287 291 293 294 297 303 307 309 312 313 313
56 26 70 150 175 156 156 215 269 262 251 242 233 218 164 131 96 71 237 241 233 194 190 201 227 248 234 197 184 190 220 235 251 269 265 268 294 291 274 268 262 258 261 258 254 255 258 258 260 263 265 266 268 269 264 262 264 268 273 278 281 287 292 291 288 286 282 279 277 276 276 277 276 277 280 283 287 289 288 291 296 300 304 308 308 309
141 62 71 146 157 144 158 202 290 290 263 227 177 166 153 132 149 222 221 229 215 201 207 218 234 245 239 218 211 224 245 255 259 263 265 274 284 285 284 284 272 262 261 257 253 254 255 258 262 265 270 271 268 265 263 260 261 266 271 276 283 295 298 291 287 284 280 280 282 284 284 282 279 278 279 281 283 285 286 288 290 294 298 300 301 304
173 176 225 206 169 135 90 109 212 286 253 153 124 113 152 180 222 238 231 232 230 233 241 242 243 246 246 244 241 246 257 264 265 267 269 270 271 274 279 279 275 273 270 264 261 259 257 259 262 265 271 275 269 266 262 259 261 265 269 275 289 299 295 287 285 284 281 284 286 286 286 285 282 279 277 279 281 282 285 286 286 289 293 295 296 298
190 181 206 240 187 136 124 185 206 242 199 165 157 180 208 213 238 261 258 244 245 249 249 248 252 252 248 254 259 258 260 265 268 269 267 264 267 272 275 275 275 276 274 271 269 264 259 260 262 264 270 273 268 263 259 259 262 265 268 277 293 297 289 284 285 284 287 292 293 289 285 283 282 280 279 279 280 281 282 284 284 285 288 291 292 292
217 194 174 216 214 167 185 225 234 258 206 192 206 234 234 232 246 254 254 260 263 259 253 253 257 254 251 258 262 259 262 266 269 270 268 267 271 273 274 274 274 273 274 274 272 266 261 262 264 264 267 269 266 261 258 259 261 263 269 280 291 291 285 283 283 285 290 294 296 294 288 282 281 283 283 282 281 281 283 284 284 284 285 287 288 287
224 189 147 156 237 245 260 253 250 268 266 245 238 248 255 257 259 258 259 263 265 262 259 258 261 258 254 256 258 260 267 271 272 275 275 275 276 275 273 272 270 270 271 271 270 267 264 263 263 262 263 267 267 263 260 259 259 262 270 281 288 286 282 280 283 287 289 289 292 295 293 289 287 287 287 285 283 282 284 285 286 286 285 285 285 282
246 178 168 198 250 252 271 260 245 259 269 268 265 265 265 264 263 262 264 267 270 270 263 258 259 259 255 257 261 268 276 279 279 279 278 278 278 278 277 276 274 272 272 272 271 269 266 263 262 261 262 267 271 270 265 261 260 261 267 278 284 281 277 279 286 290 288 285 287 292 296 297 295 292 291 290 287 286 286 286 289 291 289 287 286 283
5 164 199 204 185 198 253 269 272 274 275 277 281 281 282 280 272 267 267 270 272 272 265 260 260 264 268 274 277 280 285 286 283 281 279 279 280 281 281 281 281 279 277 276 274 269 265 265 264 263 262 266 272 273 268 262 260 258 262 274 282 277 274 280 287 291 288 283 284 288 293 295 294 294 295 293 292 291 290 288 290 291 290 290 290 288
156 214 220 182 223 285 282 280 284 288 286 285 287 290 295 298 290 280 274 272 272 273 271 267 266 270 278 286 288 287 289 290 287 285 284 283 284 284 283 283 283 283 283 282 279 274 269 268 268 267 266 268 272 273 268 262 258 255 259 271 277 273 274 281 286 287 284 281 283 287 290 291 291 293 294 294 296 297 295 292 290 289 290 290 289 289
163 216 198 142 285 275 261 275 288 289 282 293 310 326 327 321 314 301 286 276 278 284 283 277 273 275 280 286 288 287 288 290 291 290 287 285 285 284 283 282 281 281 282 283 280 277 274 272 271 269 268 268 270 271 267 260 254 253 260 269 272 271 275 280 282 281 279 279 283 286 288 290 293 295 295 296 297 298 296 294 291 290 292 291 289 288
208 219 201 182 226 246 261 286 294 269 254 283 309 321 319 318 314 304 296 290 287 288 285 280 279 278 279 281 282 282 286 290 291 289 287 286 283 281 280 280 280 282 284 282 278 275 273 273 272 270 268 268 269 269 265 256 250 252 260 268 271 271 273 276 278 276 275 276 279 280 285 291 297 302 305 303 300 297 296 295 294 294 295 294 291 288
Height
1512 1516 1519 1520 1520 1519 1518 1519 1520 1522 1524 1525 1528 1529 1531 1533 1532 1531 1532 1530 1529 1534 1542 1543 1542 1544 1544 1543 1541 1541 1541 1541 1540 1540 1540 1540 1540 1541 1541 1541 1541 1542 1543 1544 1545 1546 1545 1545 1546 1547 1549 1551 1551 1551 1552 1552 1552 1552 1553 1553 1552 1552 1551 1551 1551 1550 1550 1549 1548 1547 1545 1543 1541 1540 1539 1537 1535 1533 1532 1531 1530 1529 1528 1527 1526 1526
1514 1518 1520 1519 1519 1518 1518 1520 1521 1522 1524 1525 1528 1531 1533 1535 1533 1532 1532 1531 1529 1533 1543 1544 1541 1545 1545 1543 1542 1541 1542 1540 1539 1539 1539 1539 1540 1540 1540 1540 1540 1540 1541 1543 1543 1543 1544 1545 1546 1546 1547 1548 1549 1550 1551 1551 1551 1551 1551 1551 1551 1551 1551 1551 1550 1550 1549 1549 1548 1546 1545 1543 1542 1540 1539 1537 1536 1534 1533 1531 1530 1529 1528 1527 1527 1526
1519 1521 1520 1518 1520 1519 1519 1520 1520 1521 1523 1525 1529 1531 1533 1535 1535 1534 1533 1532 1531 1533 1541 1543 1541 1545 1545 1543 1543 1541 1541 1540 1539 1540 1539 1539 1540 1539 1539 1539 1539 1540 1540 1541 1541 1542 1543 1543 1544 1544 1545 1546 1546 1547 1549 1550 1549 1548 1548 1548 1550 1550 1551 1551 1550 1550 1549 1549 1548 1547 1545 1544 1542 1541 1540 1538 1537 1535 1534 1532 1531 1530 1529 1528 1528 1527
1523 1523 1520 1519 1520 1519 1519 1522 1520 1521 1524 1527 1529 1530 1533 1535 1535 1535 1535 1535 1534 1534 1540 1542 1542 1545 1544 1543 1542 1541 1541 1540 1540 1540 1539 1540 1539 1538 1538 1538 1539 1539 1539 1539 1540 1540 1541 1541 1542 1543 1544 1544 1544 1545 1547 1547 1547 1547 1547 1547 1549 1550 1550 1551 1551 1550 1550 1549 1548 1547 1545 1544 1543 1542 1541 1540 1538 1536 1535 1533 1532 1531 1530 1529 1528 1528
1523 1521 1519 1520 1520 1518 1518 1521 1521 1522 1526 1528 1528 1528 1529 1530 1532 1535 1536 1536 1537 1539 1540 1541 1544 1546 1545 1545 1543 1541 1541 1540 1539 1539 1538 1538 1538 1538 1538 1537 1538 1538 1538 1538 1538 1539 1539 1540 1541 1542 1542 1542 1543 1544 1544 1545 1546 1546 1546 1547 1548 1549 1550 1550 1551 1551 1550 1549 1548 1547 1546 1544 1543 1542 1541 1540 1538 1537 1535 1533 1532 1531 1530 1529 1529 1529
1522 1520 1519 1520 1519 1519 1519 1521 1524 1524 1527 1529 1528 1527 1525 1525 1529 1534 1536 1536 1542 1547 1542 1542 1550 1551 1546 1546 1544 1542 1541 1539 1538 1538 1536 1536 1537 1537 1536 1535 1536 1537 1537 1537 1537 1538 1538 1539 1540 1541 1541 1541 1542 1543 1543 1544 1545 1545 1546 1547 1547 1548 1549 1550 1551 1551 1550 1549 1548 1547 1546 1545 1544 1542 1541 1540 1538 1537 1535 1534 1532 1531 1530 1530 1529 1529
1522 1520 1520 1520 1519 1520 1520 1522 1525 1525 1526 1530 1528 1526 1526 1526 1530 1535 1535 1537 1545 1550 1545 1543 1551 1553 1547 1544 1543 1544 1543 1540 1538 1537 1535 1535 1535 1535 1535 1534 1535 1536 1536 1537 1536 1537 1537 1538 1539 1540 1540 1540 1541 1542 1543 1544 1545 1545 1545 1546 1546 1547 1548 1548 1548 1548 1548 1548 1548 1547 1546 1545 1544 1542 1541 1540 1539 1537 1536 1535 1533 1532 1531 1530 1530 1529
1522 1521 1521 1521 1520 1520 1522 1522 1524 1524 1525 1528 1527 1525 1526 1526 1531 1536 1535 1538 1545 1548 1547 1546 1548 1552 1551 1545 1545 1546 1543 1541 1539 1536 1535 1534 1534 1534 1533 1534 1534 1535 1536 1536 1536 1536 1536 1537 1538 1539 1540 1540 1540 1541 1542 1543 1544 1545 1545 1545 1546 1546 1546 1546 1546 1546 1546 1547 1547 1547 1546 1545 1544 1542 1541 1540 1539 1538 1537 1535 1534 1532 1531 1530 1530 1529
1523 1522 1523 1522 1521 1523 1524 1522 1523 1523 1523 1527 1526 1526 1525 1525 1530 1533 1533 1539 1547 1548 1549 1550 1548 1553 1554 1546 1545 1547 1543 1541 1539 1535 1535 1533 1533 1533 1533 1533 1533 1534 1535 1535 1536 1536 1536 1537 1538 1539 1539 1539 1540 1540 1541 1542 1542 1543 1544 1544 1545 1545 1545 1545 1545 1544 1545 1545 1546 1546 1545 1545 1544 1542 1541 1540 1539 1538 1537 1536 1534 1533 1531 1531 1530 1529
1523 1523 1522 1522 1524 1525 1523 1522 1523 1522 1523 1526 1526 1526 1528 1530 1534 1535 1535 1538 1545 1548 1550 1552 1551 1554 1556 1546 1543 1546 1542 1540 1538 1535 1535 1533 1533 1533 1533 1533 1533 1534 1535 1535 1535 1536 1535 1536 1537 1538 1538 1538 1539 1539 1540 1540 1541 1541 1542 1543 1543 1543 1543 1543 1544 1544 1543 1544 1545 1545 1545 1544 1543 1542 1541 1540 1539 1538 1537 1536 1535 1533 1532 1530 1530 1529
1522 1522 1522 1523 1524 1524 1522 1523 1524 1522 1523 1524 1525 1525 1527 1533 1535 1538 1542 1541 1545 1551 1552 1554 1554 1554 1557 1549 1542 1543 1541 1538 1537 1535 1534 1533 1533 1534 1533 1534 1534 1534 1535 1534 1535 1535 1535 1535 1536 1536 1537 1537 1538 1538 1538 1539 1539 1540 1540 1541 1541 1541 1542 1541 1542 1542 1542 1543 1544 1544 1544 1543 1543 1541 1541 1540 1539 1538 1537 1536 1535 1533 1532 1530 1530 1529
1523 1522 1523 1523 1523 1523 1522 1523 1523 1523 1523 1524 1525 1525 1529 1537 1538 1539 1544 1544 1550 1556 1554 1556 1556 1555 1558 1550 1540 1540 1539 1538 1537 1535 1534 1533 1533 1534 1534 1534 1534 1534 1534 1534 1535 1535 1535 1535 1535 1536 1536 1536 1537 1537 1537 1537 1538 1538 1538 1539 1539 1539 1540 1540 1540 1540 1541 1543 1543 1543 1543 1542 1542 1541 1540 1539 1539 1538 1537 1536 1535 1533 1532 1530 1529 1529
1525 1523 1524 1523 1522 1522 1523 1523 1523 1522 1523 1523 1525 1528 1535 1547 1549 1547 1552 1556 1558 1557 1554 1557 1556 1554 1554 1546 1538 1538 1536 1536 1537 1535 1534 1534 1534 1534 1534 1534 1534 1534 1534 1534 1534 1534 1534 1534 1534 1535 1535 1535 1536 1535 1536 1536 1536 1536 1536 1536 1537 1537 1538 1539 1539 1540 1541 1542 1542 1542 1542 1541 1541 1540 1540 1539 1538 1538 1537 1536 1535 1533 1532 1530 1529 1529
1531 1528 1524 1523 1523 1523 1524 1526 1527 1526 1525 1525 1528 1532 1539 1551 1559 1561 1567 1569 1564 1556 1554 1556 1555 1553 1551 1542 1538 1538 1535 1534 1535 1534 1534 1534 1534 1534 1533 1534 1533 1534 1534 1533 1534 1533 1533 1534 1533 1534 1534 1534 1534 1534 1534 1534 1534 1534 1534 1535 1535 1536 1537 1538 1538 1539 1540 1540 1540 1541 1540 1540 1540 1539 1539 1539 1538 1537 1536 1535 1534 1533 1532 1530 1529 1528
1543 1540 1530 1527 1527 1525 1525 1527 1528 1529 1529 1532 1534 1534 1536 1543 1551 1557 1561 1561 1558 1556 1555 1554 1553 1554 1551 1542 1538 1536 1535 1534 1533 1533 1534 1533 1534 1533 1532 1533 1533 1533 1534 1533 1533 1533 1533 1533 1533 1533 1533 1533 1533 1533 1533 1534 1534 1534 1534 1534 1535 1535 1536 1537 1537 1538 1538 1539 1539 1539 1539 1539 1539 1538 1538 1538 1537 1537 1536 1535 1534 1533 1531 1530 1529 1528
1548 1544 1531 1528 1528 1526 1526 1527 1527 1528 1531 1537 1537 1534 1536 1538 1542 1555 1565 1562 1559 1559 1557 1555 1554 1553 1547 1539 1536 1536 1534 1533 1533 1533 1533 1533 1533 1533 1532 1533 1533 1533 1533 1533 1533 1533 1533 1533 1533 1533 1533 1533 1533 1533 1533 1534 1534 1534 1534 1534 1534 1535 1535 1536 1536 1536 1537 1537 1538 1538 1538 1538 1538 1537 1537 1537 1537 1536 1535 1535 1534 1532 1531 1530 1529 1528
1546 1541 1530 1528 1528 1527 1528 1527 1526 1528 1532 1536 1536 1535 1539 1540 1539 1552 1566 1569 1566 1562 1560 1561 1556 1550 1546 1539 1535 1536 1534 1533 1533 1533 1532 1533 1533 1533 1533 1532 1533 1533 1533 1533 1533 1532 1533 1533 1533 1533 1533 1533 1533 1533 1533 1534 1534 1534 1534 1534 1534 1534 1534 1535 1535 1535 1536 1536 1536 1537 1537 1537 1537 1536 1536 1536 1536 1535 1535 1534 1533 1532 1531 1530 1529 1527
1541 1538 1532 1530 1529 1527 1528 1528 1527 1527 1529 1532 1534 1536 1539 1540 1541 1545 1554 1564 1570 1566 1562 1563 1560 1554 1553 1547 1536 1535 1535 1533 1533 1533 1533 1533 1532 1532 1533 1533 1533 1533 1533 1533 1533 1532 1533 1532 1532 1532 1532 1532 1532 1533 1533 1533 1533 1534 1534 1534 1534 1534 1534 1534 1534 1534 1534 1535 1535 1535 1535 1535 1535 1535 1535 1535 1535 1534 1534 1533 1532 1531 1530 1529 1528 1527
1539 1539 1535 1532 1531 1529 1527 1528 1530 1530 1528 1530 1533 1535 1537 1541 1544 1545 1551 1559 1566 1569 1565 1564 1566 1561 1554 1547 1537 1535 1535 1532 1532 1534 1533 1533 1532 1532 1533 1533 1533 1532 1533 1533 1532 1532 1532 1532 1532 1532 1532 1532 1532 1532 1532 1532 1533 1533 1533 1533 1533 1533 1533 1533 1533 1533 1533 1533 1533 1534 1534 1534 1534 1534 1534 1533 1533 1534 1533 1533 1532 1531 1530 1529 1528 1527
1538 1540 1539 1534 1531 1531 1529 1531 1537 1536 1533 1531 1532 1536 1538 1542 1547 1548 1552 1554 1557 1567 1570 1565 1565 1558 1547 1542 1537 1533 1533 1532 1532 1534 1533 1532 1532 1532 1532 1533 1533 1532 1533 1533 1532 1532 1532 1532 1532 1531 1531 1531 1531 1531 1531 1532 1532 1532 1532 1532 1532 1532 1532 1532 1532 1532 1532 1532 1533 1533 1533 1533 1533 1533 1533 1532 1533 1533 1532 1532 1531 1530 1529 1528 1527 1526
1536 1540 1541 1536 1532 1534 1535 1537 1541 1540 1538 1536 1535 1538 1540 1545 1551 1551 1555 1558 1555 1560 1569 1568 1562 1550 1539 1538 1535 1532 1532 1532 1532 1533 1532 1532 1531 1531 1532 1532 1532 1532 1533 1533 1532 1532 1532 1532 1532 1531 1531 1531 1531 1531 1531 1531 1531 1531 1531 1531 1531 1531 1531 1531 1531 1531 1531 1532 1532 1532 1532 1532 1532 1532 1532 1531 1531 1531 1531 1531 1530 1529 1528 1527 1526 1525
1534 1537 1541 1540 1538 1539 1540 1540 1540 1540 1540 1539 1537 1540 1542 1545 1549 1551 1557 1563 1560 1558 1563 1567 1560 1545 1535 1535 1534 1532 1532 1531 1532 1532 1531 1531 1531 1531 1532 1532 1532 1532 1532 1533 1532 1532 1532 1531 1531 1531 1531 1531 1530 1531 1531 1530 1530 1530 1530 1530 1530 1530 1530 1530 1530 1530 1530 1530 1530 1531 1530 1530 1530 1530 1530 1530 1529 1530 1530 1529 1529 1528 1527 1526 1525 1524
1532 1535 1540 1544 1544 1541 1540 1539 1540 1540 1540 1541 1540 1543 1545 1545 1546 1549 1553 1557 1560 1564 1565 1567 1561 1544 1533 1534 1533 1532 1532 1530 1531 1531 1530 1531 1530 1531 1531 1531 1532 1532 1532 1533 1532 1531 1532 1531 1531 1531 1530 1531 1530 1530 1530 1529 1529 1529 1529 1529 1529 1529 1529 1529 1529 1529 1529 1529 1529 1529 1529 1529 1529 1528 1528 1528 1528 1528 1528 1528 1528 1527 1526 1525 1524 1523
1531 1537 1542 1546 1545 1541 1537 1537 1539 1540 1539 1540 1542 1545 1547 1545 1545 1548 1552 1552 1556 1562 1563 1563 1560 1543 1532 1533 1532 1530 1531 1530 1530 1530 1530 1530 1530 1530 1531 1531 1532 1532 1532 1532 1531 1531 1531 1530 1531 1530 1530 1530 1530 1529 1529 1529 1528 1528 1528 1528 1528 1528 1528 1528 1528 1528 1527 1527 1527 1527 1527 1527 1527 1527 1527 1527 1526 1526 1527 1527 1526 1525 1525 1524 1523 1522
1532 1539 1544 1549 1552 1549 1544 1543 1541 1539 1539 1539 1543 1548 1548 1548 1548 1549 1554 1554 1554 1558 1559 1557 1554 1541 1532 1533 1531 1530 1530 1529 1529 1530 1529 1530 1530 1530 1531 1531 1531 1531 1531 1531 1531 1531 1531 1530 1530 1530 1529 1529 1529 1529 1528 1528 1528 1527 1527 1528 1527 1527 1527 1527 1526 1526 1526 1526 1525 1525 1525 1525 1525 1525 1525 1525 1525 1525 1525 1525 1525 1524 1523 1523 1522 1521
1533 1540 1542 1545 1553 1554 1551 1549 1545 1540 1541 1541 1543 1546 1547 1548 1548 1547 1551 1552 1550 1558 1561 1553 1546 1538 1532 1531 1530 1529 1531 1529 1528 1530 1529 1529 1529 1529 1530 1530 1530 1531 1530 1530 1530 1530 1530 1530 1529 1529 1528 1528 1528 1528 1528 1527 1527 1527 1527 1526 1526 1526 1526 1525 1525 1524 1524 1524 1523 1523 1523 1523 1523 1523 1524 1524 1524 1524 1524 1524 1523 1523 1522 1521 1520 1520
1536 1541 1541 1541 1544 1546 1543 1541 1542 1542 1541 1541 1541 1542 1544 1548 1548 1547 1550 1549 1548 1557 1557 1546 1542 1539 1532 1531 1530 1529 1530 1529 1528 1528 1528 1528 1528 1528 1529 1529 1529 1529 1529 1529 1529 1529 1529 1529 1528 1528 1528 1527 1527 1527 1527 1527 1526 1526 1526 1525 1525 1524 1524 1524 1523 1522 1522 1522 1521 1521 1522 1522 1522 1522 1522 1522 1522 1523 1523 1522 1522 1521 1521 1520 1519 1518
1534 1538 1542 1542 1539 1539 1539 1538 1542 1543 1539 1538 1539 1539 1541 1546 1547 1546 1546 1545 1548 1553 1549 1541 1544 1543 1532 1528 1529 1528 1528 1528 1527 1527 1526 1527 1527 1527 1527 1528 1528 1528 1527 1527 1527 1527 1527 1528 1527 1528 1527 1527 1527 1526 1526 1526 1526 1525 1525 1524 1524 1523 1523 1522 1521 1520 1520 1520 1520 1520 1520 1521 1521 1521 1521 1521 1521 1521 1521 1521 1520 1520 1519 1519 1518 1517
1533 1536 1542 1543 1537 1537 1541 1542 1544 1543 1540 1541 1539 1537 1538 1543 1544 1542 1541 1544 1546 1545 1540 1538 1544 1541 1530 1527 1527 1526 1526 1525 1525 1525 1525 1525 1525 1525 1525 1526 1526 1526 1526 1526 1526 1526 1526 1526 1526 1526 1526 1526 1526 1526 1526 1526 1525 1524 1524 1523 1523 1522 1522 1521 1520 1520 1519 1519 1519 1519 1519 1520 1520 1520 1520 1520 1520 1520 1520 1519 1519 1518 1518 1517 1517 1516
1532 1536 1543 1544 1538 1537 1540 1544 1544 1541 1540 1539 1536 1537 1539 1540 1541 1540 1542 1546 1545 1541 1539 1542 1545 1539 1528 1525 1524 1523 1523 1524 1523 1523 1523 1523 1524 1524 1524 1524 1524 1524 1524 1524 1525 1525 1525 1525 1525 1525 1525 1525 1525 1525 1525 1525 1524 1523 1523 1522 1522 1521 1521 1520 1519 1519 1519 1519 1519 1518 1519 1519 1519 1519 1519 1519 1519 1519 1518 1518 1518 1517 1517 1516 1515 1515
1531 1538 1545 1543 1539 1538 1539 1541 1542 1542 1540 1537 1535 1539 1542 1542 1543 1544 1545 1547 1546 1542 1541 1545 1545 1536 1524 1521 1521 1521 1521 1522 1521 1521 1521 1521 1522 1522 1522 1522 1522 1522 1523 1523 1524 1524 1524 1524 1524 1524 1524 1524 1524 1524 1524 1523 1523 1522 1522 1521 1521 1520 1520 1519 1519 1518 1518 1518 1518 1517 1518 1517 1517 1518 1517 1517 1517 1517 1517 1517 1516 1516 1515 1514 1514 1513
1531 1539 1544 1542 1541 1541 1539 1540 1542 1541 1542 1539 1534 1536 1539 1540 1540 1539 1539 1540 1538 1536 1539 1543 1540 1528 1519 1518 1520 1519 1519 1520 1520 1520 1520 1520 1521 1521 1520 1520 1521 1521 1521 1522 1522 1523 1523 1523 1523 1523 1523 1523 1523 1523 1523 1522 1522 1521 1521 1520 1520 1519 1519 1519 1518 1518 1517 1517 1517 1517 1517 1516 1516 1516 1516 1516 1516 1516 1515 1515 1515 1514 1514 1513 1512 1512
1533 1536 1539 1541 1543 1542 1542 1544 1542 1539 1542 1540 1530 1527 1531 1534 1534 1535 1535 1535 1533 1532 1534 1534 1527 1519 1518 1520 1519 1517 1518 1518 1518 1518 1518 1518 1519 1519 1519 1519 1519 1520 1520 1521 1521 1522 1522 1522 1522 1522 1522 1522 1522 1522 1522 1521 1521 1520 1520 1519 1519 1518 1518 1518 1517 1517 1517 1516 1516 1516 1516 1516 1515 1515 1515 1515 1515 1514 1514 1513 1513 1512 1512 1511 1511 1510
1535 1533 1537 1542 1541 1540 1544 1544 1542 1544 1544 1536 1525 1524 1527 1527 1528 1529 1526 1525 1527 1528 1525 1522 1519 1518 1519 1519 1516 1515 1516 1516 1516 1516 1516 1517 1517 1517 1518 1518 1518 1518 1519 1519 1520 1520 1521 1521 1521 1521 1521 1521 1521 1521 1521 1520 1520 1520 1519 1519 1518 1517 1517 1517 1516 1516 1516 1515 1515 1515 1515 1515 1514 1514 1514 1514 1513 1513 1512 1512 1511 1511 1510 1510 1509 1508
1534 1533 1540 1544 1543 1543 1544 1542 1545 1548 1540 1527 1524 1527 1526 1525 1526 1526 1522 1520 1523 1524 1521 1519 1517 1515 1515 1515 1514 1514 1514 1514 1515 1515 1514 1515 1515 1516 1516 1516 1516 1517 1517 1518 1518 1519 1519 1519 1520 1520 1520 1520 1520 1520 1520 1520 1519 1519 1518 1518 1517 1517 1516 1516 1515 1515 1515 1514 1514 1514 1513 1513 1513 1513 1513 1512 1512 1511 1510 1510 1510 1509 1509 1508 1507 1506
1529 1533 1539 1543 1546 1545 1545 1546 1546 1542 1530 1521 1523 1526 1525 1525 1527 1526 1522 1517 1515 1518 1519 1516 1513 1511 1513 1513 1512 1513 1514 1514 1514 1513 1512 1513 1514 1514 1514 1514 1515 1515 1516 1516 1517 1517 1518 1518 1518 1518 1518 1518 1519 1519 1518 1518 1518 1518 1517 1517 1516 1516 1515 1515 1514 1514 1514 1513 1513 1513 1512 1512 1512 1511 1511 1511 1510 1510 1509 1509 1508 1507 1507 1506 1505 1505
1526 1530 1533 1539 1546 1548 1548 1548 1543 1536 1531 1522 1518 1520 1521 1520 1520 1521 1520 1514 1509 1511 1513 1512 1510 1510 1510 1511 1512 1513 1514 1514 1513 1511 1509 1510 1511 1512 1512 1512 1513 1514 1514 1515 1515 1516 1516 1517 1517 1517 1517 1517 1517 1517 1517 1517 1517 1516 1516 1515 1515 1515 1514 1513 1513 1513 1512 1512 1512 1511 1511 1511 1510 1510 1510 1509 1509 1508 1508 1507 1506 1506 1505 1504 1504 1503
1525 1527 1528 1534 1544 1549 1550 1549 1545 1544 1539 1525 1515 1516 1516 1515 1515 1516 1518 1514 1506 1504 1506 1507 1507 1507 1508 1509 1512 1512 1514 1516 1514 1509 1507 1508 1509 1510 1510 1511 1511 1512 1512 1513 1514 1514 1514 1515 1515 1515 1515 1515 1515 1515 1515 1515 1515 1515 1514 1514 1513 1513 1512 1512 1511 1511 1511 1510 1510 1510 1509 1509 1509 1508 1508 1507 1507 1506 1506 1506 1505 1504 1504 1503 1502 1501
1526 1529 1528 1532 1541 1546 1546 1546 1548 1546 1534 1521 1515 1514 1514 1516 1515 1515 1521 1518 1505 1499 1503 1505 1504 1505 1505 1508 1510 1511 1514 1517 1513 1507 1506 1507 1508 1508 1509 1509 1509 1510 1511 1511 1512 1512 1512 1513 1513 1513 1514 1513 1513 1513 1513 1514 1514 1513 1513 1512 1512 1511 1510 1510 1510 1509 1509 1508 1508 1508 1507 1507 1506 1506 1506 1505 1505 1504 1504 1504 1503 1503 1502 1501 1500 1499
1528 1530 1531 1533 1538 1543 1543 1543 1545 1539 1525 1517 1515 1514 1515 1515 1514 1520 1530 1522 1503 1498 1502 1502 1502 1503 1504 1506 1509 1510 1512 1512 1509 1506 1505 1506 1507 1507 1507 1507 1508 1509 1509 1509 1510 1510 1511 1511 1511 1511 1511 1511 1511 1511 1511 1512 1511 1511 1511 1510 1510 1509 1508 1508 1508 1507 1507 1506 1505 1505 1505 1504 1504 1504 1503 1503 1503 1502 1502 1502 1501 1501 1500 1499 1499 1498
1532 1533 1537 1536 1536 1541 1543 1541 1541 1533 1519 1513 1514 1513 1514 1515 1519 1527 1528 1512 1499 1500 1501 1500 1501 1502 1502 1505 1507 1506 1506 1505 1504 1504 1505 1505 1505 1506 1506 1506 1506 1507 1507 1507 1508 1508 1508 1509 1509 1509 1509 1509 1509 1509 1509 1509 1509 1509 1509 1508 1508 1507 1506 1506 1505 1505 1504 1504 1503 1503 1502 1502 1502 1501 1501 1501 1500 1500 1500 1499 1499 1499 1498 1498 1497 1496
1533 1535 1539 1539 1538 1542 1543 1540 1541 1532 1514 1508 1511 1513 1513 1517 1522 1521 1511 1500 1499 1501 1500 1500 1501 1501 1501 1503 1503 1502 1502 1502 1503 1504 1504 1504 1504 1504 1505 1505 1505 1505 1505 1505 1506 1506 1506 1506 1506 1507 1507 1507 1507 1507 1507 1507 1507 1507 1507 1506 1505 1504 1504 1503 1502 1502 1502 1501 1501 1500 1500 1500 1499 1499 1498 1498 1498 1497 1497 1497 1497 1497 1496 1496 1495 1494
1526 1529 1534 1535 1537 1542 1543 1543 1542 1530 1511 1505 1509 1513 1514 1514 1511 1505 1500 1499 1501 1500 1499 1500 1500 1500 1501 1501 1501 1501 1501 1501 1502 1503 1503 1503 1503 1503 1503 1503 1503 1503 1503 1504 1504 1504 1504 1504 1504 1505 1505 1505 1505 1505 1505 1505 1505 1505 1504 1504 1503 1502 1502 1501 1500 1499 1499 1499 1498 1498 1498 1497 1497 1496 1496 1496 1495 1495 1495 1495 1495 1494 1494 1494 1493 1492
1522 1523 1526 1527 1529 1534 1537 1534 1526 1514 1505 1504 1505 1506 1507 1504 1500 1499 1500 1500 1499 1499 1499 1499 1498 1499 1500 1499 1500 1501 1500 1500 1501 1501 1501 1502 1501 1501 1502 1501 1501 1502 1501 1502 1502 1502 1502 1502 1502 1502 1502 1503 1503 1503 1503 1503 1502 1502 1502 1501 1501 1500 1499 1498 1498 1497 1497 1497 1496 1495 1495 1495 1494 1494 1494 1493 1493 1492 1492 1492 1492 1492 1492 1491 1491 1491
1516 1514 1515 1518 1520 1521 1520 1515 1508 1503 1503 1504 1501 1499 1500 1499 1498 1499 1499 1498 1498 1499 1498 1498 1498 1499 1498 1498 1499 1499 1499 1499 1500 1499 1499 1500 1499 1499 1499 1499 1499 1499 1499 1500 1500 1500 1500 1500 1500 1500 1500 1500 1500 1500 1500 1500 1500 1500 1499 1499 1499 1498 1497 1496 1496 1495 1495 1494 1494 1493 1493 1492 1492 1492 1491 1491 1490 1490 1490 1489 1489 1489 1489 1489 1489 1488
1511 1511 1512 1512 1513 1513 1509 1504 1503 1502 1501 1500 1499 1499 1499 1498 1498 1498 1497 1496 1497 1497 1497 1497 1497 1497 1497 1498 1497 1497 1497 1498 1497 1497 1498 1497 1497 1497 1497 1497 1497 1497 1497 1497 1497 1497 1497 1497 1497 1498 1497 1497 1498 1498 1497 1497 1497 1497 1497 1497 1497 1496 1495 1494 1494 1493 1493 1492 1492 1491 1491 1490 1490 1490 1489 1489 1488 1488 1487 1487 1486 1486 1486 1486 1486 1486
1509 1510 1511 1511 1511 1512 1508 1502 1500 1500 1498 1497 1498 1498 1496 1496 1496 1495 1495 1494 1494 1495 1496 1496 1495 1496 1496 1496 1495 1496 1496 1495 1495 1495 1495 1495 1495 1495 1494 1495 1494 1494 1494 1494 1494 1495 1495 1494 1495 1495 1495 1495 1495 1495 1495 1494 1494 1494 1494 1494 1494 1493 1493 1492 1491 1491 1490 1490 1490 1489 1489 1488 1488 1487 1487 1486 1486 1485 1485 1484 1484 1483 1483 1483 1483 1483
1510 1510 1511 1510 1510 1510 1506 1500 1498 1498 1496 1496 1496 1495 1494 1494 1493 1492 1493 1492 1492 1493 1493 1493 1494 1494 1494 1494 1494 1494 1493 1493 1493 1493 1492 1492 1492 1492 1492 1492 1492 1492 1492 1492 1491 1492 1492 1491 1491 1491 1491 1492 1491 1491 1492 1491 1491 1491 1492 1492 1491 1491 1490 1490 1489 1488 1488 1488 1487 1487 1486 1486 1486 1485 1485 1484 1484 1483 1483 1482 1481 1481 1480 1480 1480 1480
1509 1510 1510 1510 1509 1507 1503 1499 1497 1496 1495 1494 1494 1493 1492 1492 1491 1491 1491 1491 1491 1491 1491 1491 1492 1492 1492 1492 1492 1491 1491 1491 1490 1490 1490 1490 1489 1489 1489 1489 1489 1489 1489 1489 1489 1489 1488 1488 1488 1488 1488 1488 1488 1488 1488 1488 1488 1489 1489 1489 1489 1488 1487 1487 1486 1486 1485 1485 1485 1484 1484 1484 1483 1483 1482 1482 1481 1481 1480 1479 1479 1478 1477 1477 1477 1476
1507 1508 1508 1509 1509 1506 1502 1498 1496 1497 1496 1493 1493 1492 1492 1491 1491 1490 1490 1490 1490 1490 1490 1490 1490 1490 1490 1490 1490 1489 1489 1488 1488 1488 1487 1487 1486 1486 1486 1486 1486 1486 1486 1486 1486 1485 1485 1485 1485 1484 1485 1485 1485 1485 1485 1485 1485 1486 1486 1486 1486 1485 1485 1484 1484 1483 1483 1482 1482 1482 1482 1481 1481 1481 1480 1480 1479 1478 1478 1477 1476 1475 1475 1475 1474 1474
1502 1503 1504 1505 1505 1502 1498 1496 1496 1497 1495 1493 1492 1492 1492 1491 1490 1490 1490 1490 1490 1489 1489 1488 1488 1488 1488 1487 1487 1487 1486 1486 1486 1486 1485 1484 1484 1484 1483 1484 1484 1483 1483 1483 1483 1482 1482 1482 1481 1481 1481 1481 1481 1482 1482 1482 1483 1483 1483 1483 1483 1482 1482 1482 1481 1480 1480 1480 1480 1480 1479 1479 1479 1478 1478 1477 1476 1476 1475 1475 1474 1473 1473 1472 1471 1471